Thermal, CA

10:31 AM PDT on March 24, 2017 (GMT -0700)
Desert Resorts Regional

Weather History for KTRM - September, 2013

Change the Weather History Date:

Monday, September 9, 2013

  Actual Average Record
Temperature  
Mean Temperature 87 °F 86 °F  
Max Temperature 100 °F 103 °F 117 °F (1993)
Min Temperature 74 °F 69 °F 55 °F (1961)
Degree Days  
Heating Degree Days 0 0  
Month to date heating degree days 0 0  
Since 1 July heating degree days 0 0  
Cooling Degree Days 22 21  
Month to date cooling degree days 244 199  
Year to date cooling degree days 3528 3032  
Growing Degree Days 38 (Base 50)    
Moisture  
Dew Point 65 °F    
Average Humidity 54    
Maximum Humidity 82    
Minimum Humidity 26    
Precipitation  
Precipitation 0.14 in 0.00 in 0.22 in (1976)
Month to date precipitation 0.14 0.06  
Year to date precipitation 1.83 2.21  
Since 1 July precipitation 1.39  
Snow  
Snow 0.00 in - - ()
Month to date snowfall 0.0  
Year to date snowfall 0.0  
Snow Depth 0.00 in    
Sea Level Pressure  
Sea Level Pressure 29.67 in    
Wind  
Wind Speed 4 mph (ESE)    
Max Wind Speed 18 mph    
Max Gust Speed 24 mph    
Visibility 10 miles    
Events Rain , Thunderstorm    
T = Trace of Precipitation, MM = Missing Value Source: NWS Daily Summary

Daily Weather History Graph

Daily Weather History Graph

Search for Another Location

Airport or City:

Trip Planner

Search our weather history database for the weather conditions in past years. The results will help you decide how hot, cold, wet, or windy it might be!

Date:

Astronomy

Sep. 09, 2013 Rise Set
Actual Time 6:24 AM PDT 6:58 PM PDT
Civil Twilight 5:59 AM PDT 7:23 PM PDT
Nautical Twilight 5:29 AM PDT 7:53 PM PDT
Astronomical Twilight 4:59 AM PDT 8:23 PM PDT
Moon 10:35 AM PDT (9/9) 9:34 PM PDT (9/9)
Length of Visible Light 13h 24m
Length of Day
12h 34m
Waxing Crescent, 20% of the Moon is Illuminated
Sep 9
Waxing Crescent
Sep 12
First Quarter
Sep 19
Full
Sep 26
Last Quarter
Oct 4
New

Hourly Weather History & Observations

Time (PDT) Temp. Heat Index Dew Point Humidity Pressure Visibility Wind Dir Wind Speed Gust Speed Precip Events Conditions
12:33 AM 82.4 °F 85.4 °F 68.0 °F 62% 29.67 in 10.0 mi SE 5.8 mph - N/A Thunderstorm Partly Cloudy
12:52 AM 84.9 °F 86.6 °F 64.9 °F 51% 29.70 in 10.0 mi NE 5.8 mph - N/A Thunderstorm Thunderstorm
1:15 AM 87.8 °F 87.6 °F 60.8 °F 40% 29.71 in 4.0 mi NE 11.5 mph 18.4 mph N/A Thunderstorm Unknown
1:52 AM 75.9 °F - 68.0 °F 76% 29.75 in 10.0 mi WSW 10.4 mph - 0.13 in Rain , Thunderstorm Light Rain
2:13 AM 75.2 °F - 69.8 °F 83% 29.71 in 10.0 mi SW 5.8 mph - 0.00 in Rain Light Rain
2:52 AM 75.0 °F - 70.0 °F 84% 29.71 in 10.0 mi East 4.6 mph - 0.01 in   Scattered Clouds
3:52 AM 80.1 °F 82.3 °F 66.9 °F 64% 29.69 in 10.0 mi Variable 5.8 mph - N/A   Clear
4:52 AM 75.9 °F - 70.0 °F 82% 29.70 in 10.0 mi West 5.8 mph - N/A   Clear
5:52 AM 77.0 °F - 70.0 °F 79% 29.72 in 10.0 mi NNE 3.5 mph - N/A   Clear
6:52 AM 77.0 °F - 69.1 °F 76% 29.70 in 10.0 mi NE 5.8 mph - N/A   Clear
7:52 AM 78.1 °F - 71.1 °F 79% 29.70 in 10.0 mi Calm Calm - N/A   Clear
8:52 AM 82.9 °F 87.0 °F 70.0 °F 65% 29.73 in 10.0 mi WNW 4.6 mph - N/A   Clear
9:52 AM 87.1 °F 89.2 °F 66.0 °F 49% 29.73 in 10.0 mi NW 3.5 mph - N/A   Clear
10:52 AM 91.0 °F 93.0 °F 64.9 °F 42% 29.70 in 10.0 mi Calm Calm - N/A   Clear
11:52 AM 95.0 °F 95.6 °F 62.1 °F 33% 29.68 in 10.0 mi Calm Calm - N/A   Clear
12:52 PM 97.0 °F 97.8 °F 62.1 °F 31% 29.65 in 10.0 mi ENE 3.5 mph - N/A   Clear
1:52 PM 100.0 °F 101.8 °F 62.1 °F 29% 29.62 in 10.0 mi SE 8.1 mph - N/A   Clear
2:52 PM 100.0 °F 100.2 °F 59.0 °F 26% 29.59 in 10.0 mi SE 6.9 mph - N/A   Clear
3:52 PM 98.1 °F 97.7 °F 59.0 °F 27% 29.58 in 10.0 mi ESE 4.6 mph - N/A   Clear
4:52 PM 96.1 °F 96.0 °F 60.1 °F 30% 29.57 in 10.0 mi SSE 4.6 mph - N/A   Partly Cloudy
5:52 PM 96.1 °F 96.4 °F 61.0 °F 31% 29.61 in 10.0 mi Calm Calm - N/A   Clear
6:52 PM 91.0 °F 92.6 °F 64.0 °F 41% 29.59 in 10.0 mi Calm Calm - N/A   Clear
7:52 PM 91.9 °F 90.0 °F 55.0 °F 29% 29.59 in 10.0 mi NNW 6.9 mph - N/A   Clear
8:52 PM 84.9 °F 83.9 °F 57.0 °F 38% 29.63 in 10.0 mi South 3.5 mph - N/A   Clear
9:52 PM 91.0 °F 88.5 °F 53.1 °F 27% 29.68 in 10.0 mi WSW 3.5 mph - N/A   Clear
10:52 PM 86.0 °F 90.1 °F 69.1 °F 57% 29.71 in 10.0 mi ESE 12.7 mph 18.4 mph N/A   Clear
11:52 PM 81.0 °F 84.9 °F 71.1 °F 72% 29.75 in 10.0 mi ESE 12.7 mph - N/A   Partly Cloudy